JLY1424 LGSK-LQSA

Flight info

Callsign JLY1424
Flight time 1h 12m
Altitude 38000
Route TSL UN130 TALAS DCT LONTA DCT KEB
Aircraft B738/M-SDE2E3FGHIRWXY/LB1

Departure

Time 2026-04-27 00:47
Airport Skiathos Island National Airport (LGSK)

Arrival

Time 2026-04-27 02:00
Airport Sarajevo International Airport (LQSA)
Time Latitude Longitude Altitude Speed Heading
2026-04-27 00:30 39.17949 23.50259 38 ft 0 kts 289°
2026-04-27 00:40 39.17948 23.50261 36 ft 2 kts 289°
2026-04-27 00:41 39.17940 23.50293 37 ft 4 kts 289°
2026-04-27 00:41 39.17932 23.50322 37 ft 4 kts 270°
2026-04-27 00:41 39.17940 23.50348 36 ft 4 kts 208°
2026-04-27 00:41 39.17957 23.50357 37 ft 2 kts 199°
2026-04-27 00:42 39.17960 23.50358 37 ft 0 kts 199°
2026-04-27 00:43 39.17950 23.50354 36 ft 3 kts 199°
2026-04-27 00:43 39.17919 23.50340 36 ft 6 kts 199°
2026-04-27 00:44 39.17865 23.50316 38 ft 10 kts 199°
2026-04-27 00:44 39.17789 23.50283 38 ft 12 kts 194°
2026-04-27 00:44 39.17709 23.50280 39 ft 11 kts 163°
2026-04-27 00:44 39.17643 23.50319 40 ft 11 kts 189°
2026-04-27 00:45 39.17557 23.50291 39 ft 15 kts 194°
2026-04-27 00:45 39.17447 23.50245 37 ft 19 kts 199°
2026-04-27 00:45 39.17302 23.50183 28 ft 26 kts 200°
2026-04-27 00:45 39.17118 23.50089 18 ft 29 kts 202°
2026-04-27 00:46 39.17018 23.50062 10 ft 3 kts 108°
2026-04-27 00:46 39.17036 23.50074 12 ft 4 kts 358°
2026-04-27 00:46 39.17062 23.50079 16 ft 0 kts 18°
2026-04-27 00:47 39.17221 23.50150 23 ft 68 kts 19°
2026-04-27 00:47 39.17959 23.50477 44 ft 153 kts 19°
2026-04-27 00:47 39.19044 23.50995 769 ft 163 kts 19°
2026-04-27 00:47 39.20089 23.51474 1900 ft 161 kts 17°
2026-04-27 00:48 39.21211 23.52073 2428 ft 192 kts 38°
2026-04-27 00:48 39.21842 23.53646 2877 ft 214 kts 86°
2026-04-27 00:48 39.21392 23.55478 3543 ft 222 kts 125°
2026-04-27 00:48 39.20450 23.57076 4263 ft 226 kts 124°
2026-04-27 00:49 39.19545 23.58760 4994 ft 231 kts 122°
2026-04-27 00:49 39.18661 23.60501 5784 ft 232 kts 122°
2026-04-27 00:49 39.17792 23.62308 6518 ft 244 kts 115°
2026-04-27 00:49 39.17409 23.64547 6840 ft 272 kts 87°
2026-04-27 00:50 39.17799 23.66962 7607 ft 280 kts 66°
2026-04-27 00:50 39.20456 23.70508 9481 ft 285 kts 21°
2026-04-27 00:50 39.22403 23.70951 10343 ft 289 kts 357°
2026-04-27 00:51 39.24408 23.70368 10657 ft 314 kts 333°
2026-04-27 00:51 39.26127 23.68474 10880 ft 341 kts 304°
2026-04-27 00:51 39.27269 23.65722 11404 ft 354 kts 297°
2026-04-27 00:51 39.28413 23.62870 12157 ft 360 kts 298°
2026-04-27 00:52 39.29567 23.59985 12992 ft 364 kts 298°
2026-04-27 00:52 39.30769 23.57086 13792 ft 368 kts 304°
2026-04-27 00:52 39.32570 23.54724 14482 ft 370 kts 326°
2026-04-27 00:52 39.34860 23.53219 15292 ft 370 kts 340°
2026-04-27 00:53 39.37300 23.52131 16065 ft 373 kts 342°
2026-04-27 00:53 39.39733 23.51066 16789 ft 376 kts 342°
2026-04-27 00:53 39.42217 23.49948 17521 ft 379 kts 341°
2026-04-27 00:53 39.44709 23.48775 18254 ft 383 kts 341°
2026-04-27 00:54 39.47220 23.47562 18894 ft 386 kts 341°
2026-04-27 00:54 39.49743 23.46331 19521 ft 389 kts 340°
2026-04-27 00:54 39.52280 23.45092 20136 ft 392 kts 340°
2026-04-27 00:54 39.54848 23.43839 20747 ft 395 kts 340°
2026-04-27 00:55 39.57430 23.42581 21320 ft 398 kts 340°
2026-04-27 00:55 39.60037 23.41311 21878 ft 402 kts 340°
2026-04-27 00:55 39.62667 23.40031 22444 ft 405 kts 340°
2026-04-27 00:55 39.65318 23.38739 23038 ft 408 kts 340°
2026-04-27 00:56 39.67955 23.37454 23578 ft 411 kts 340°
2026-04-27 00:56 39.70642 23.36144 24041 ft 414 kts 340°
2026-04-27 00:56 39.73342 23.34827 24497 ft 416 kts 340°
2026-04-27 00:56 39.76065 23.33498 24940 ft 419 kts 340°
2026-04-27 00:57 39.78801 23.32161 25383 ft 421 kts 340°
2026-04-27 00:57 39.81551 23.30816 25788 ft 424 kts 340°
2026-04-27 00:57 39.84326 23.29457 26198 ft 427 kts 340°
2026-04-27 00:57 39.87122 23.28087 26615 ft 429 kts 340°
2026-04-27 00:58 39.88981 23.27175 26890 ft 431 kts 340°
2026-04-27 00:58 39.92711 23.25344 27401 ft 434 kts 340°
2026-04-27 00:58 39.95541 23.23954 27788 ft 436 kts 340°
2026-04-27 00:58 39.97469 23.23006 28040 ft 438 kts 340°
2026-04-27 00:59 40.01267 23.21137 28512 ft 441 kts 340°
2026-04-27 00:59 40.03174 23.20198 28762 ft 443 kts 340°
2026-04-27 00:59 40.06063 23.18774 29114 ft 445 kts 340°
2026-04-27 00:59 40.08965 23.17342 29454 ft 447 kts 340°
2026-04-27 01:00 40.11885 23.15900 29826 ft 448 kts 340°
2026-04-27 01:00 40.14798 23.14459 30279 ft 447 kts 340°
2026-04-27 01:00 40.17697 23.13025 30762 ft 443 kts 340°
2026-04-27 01:00 40.20569 23.11602 31259 ft 440 kts 340°
2026-04-27 01:01 40.23427 23.10186 31714 ft 438 kts 340°
2026-04-27 01:01 40.26269 23.08775 32106 ft 437 kts 340°
2026-04-27 01:01 40.29105 23.07367 32498 ft 435 kts 340°
2026-04-27 01:01 40.31932 23.05962 32946 ft 433 kts 340°
2026-04-27 01:02 40.34748 23.04561 33392 ft 431 kts 340°
2026-04-27 01:02 40.37548 23.03167 33810 ft 429 kts 340°
2026-04-27 01:02 40.40331 23.01781 34177 ft 428 kts 340°
2026-04-27 01:02 40.43029 23.00240 34481 ft 429 kts 332°
2026-04-27 01:03 40.45526 22.98084 34764 ft 430 kts 324°
2026-04-27 01:03 40.47779 22.95501 35070 ft 431 kts 316°
2026-04-27 01:03 40.49718 22.92477 35367 ft 433 kts 310°
2026-04-27 01:03 40.51541 22.89335 35669 ft 432 kts 309°
2026-04-27 01:04 40.53346 22.86174 35953 ft 432 kts 309°
2026-04-27 01:04 40.55153 22.83010 36242 ft 431 kts 309°
2026-04-27 01:04 40.56962 22.79862 36534 ft 430 kts 309°
2026-04-27 01:04 40.58774 22.76727 36810 ft 430 kts 309°
2026-04-27 01:05 40.60583 22.73608 37113 ft 428 kts 309°
2026-04-27 01:05 40.62391 22.70496 37410 ft 427 kts 309°
2026-04-27 01:05 40.64197 22.67387 37678 ft 427 kts 309°
2026-04-27 01:05 40.66004 22.64274 37908 ft 427 kts 309°
2026-04-27 01:06 40.67786 22.61200 38035 ft 429 kts 309°
2026-04-27 01:06 40.71423 22.54915 38028 ft 432 kts 309°
2026-04-27 01:07 40.75047 22.48637 38022 ft 426 kts 309°
2026-04-27 01:07 40.78605 22.42468 38040 ft 424 kts 309°
2026-04-27 01:08 40.82172 22.36292 38038 ft 422 kts 308°
2026-04-27 01:08 40.85727 22.30124 38036 ft 421 kts 308°
2026-04-27 01:09 40.89278 22.23950 38052 ft 425 kts 308°
2026-04-27 01:09 40.92890 22.17656 38060 ft 433 kts 308°
2026-04-27 01:10 40.96560 22.11245 38044 ft 439 kts 308°
2026-04-27 01:10 41.00245 22.04792 38059 ft 440 kts 308°
2026-04-27 01:11 41.03908 21.98369 38055 ft 440 kts 308°
2026-04-27 01:11 41.08123 21.92558 38083 ft 438 kts 324°
2026-04-27 01:12 41.13485 21.88789 38071 ft 437 kts 339°
2026-04-27 01:12 41.19238 21.86115 38065 ft 437 kts 340°
2026-04-27 01:13 41.24982 21.83478 38061 ft 436 kts 340°
2026-04-27 01:13 41.30665 21.80813 38061 ft 435 kts 340°
2026-04-27 01:14 41.36371 21.78103 38068 ft 435 kts 339°
2026-04-27 01:14 41.42073 21.75381 38070 ft 435 kts 339°
2026-04-27 01:15 41.47780 21.72653 38074 ft 436 kts 339°
2026-04-27 01:15 41.53459 21.69934 38083 ft 436 kts 339°
2026-04-27 01:16 41.59184 21.67188 38068 ft 436 kts 338°
2026-04-27 01:16 41.64900 21.64442 38071 ft 436 kts 338°
2026-04-27 01:17 41.70621 21.61688 38074 ft 437 kts 338°
2026-04-27 01:17 41.76347 21.58926 38069 ft 437 kts 338°
2026-04-27 01:18 41.82062 21.56164 38076 ft 436 kts 338°
2026-04-27 01:18 41.87745 21.53412 38074 ft 436 kts 338°
2026-04-27 01:19 41.93460 21.50640 38070 ft 436 kts 338°
2026-04-27 01:19 41.99180 21.47859 38076 ft 436 kts 338°
2026-04-27 01:20 42.04886 21.45080 38066 ft 436 kts 338°
2026-04-27 01:20 42.10597 21.42295 38072 ft 436 kts 338°
2026-04-27 01:21 42.15930 21.38557 38078 ft 431 kts 322°
2026-04-27 01:21 42.20232 21.33061 38095 ft 429 kts 310°
2026-04-27 01:22 42.24081 21.26895 38073 ft 429 kts 309°
2026-04-27 01:22 42.27913 21.20712 38067 ft 428 kts 309°
2026-04-27 01:23 42.31756 21.14554 38069 ft 428 kts 309°
2026-04-27 01:23 42.35599 21.08415 38074 ft 427 kts 309°
2026-04-27 01:24 42.39412 21.02322 38073 ft 427 kts 309°
2026-04-27 01:24 42.43242 20.96189 38071 ft 426 kts 309°
2026-04-27 01:25 42.47063 20.90057 38077 ft 426 kts 309°
2026-04-27 01:25 42.50883 20.83914 38083 ft 426 kts 309°
2026-04-27 01:26 42.54696 20.77770 38072 ft 425 kts 309°
2026-04-27 01:26 42.58498 20.71629 38072 ft 424 kts 309°
2026-04-27 01:27 42.62267 20.65535 38075 ft 424 kts 309°
2026-04-27 01:27 42.66056 20.59393 38074 ft 423 kts 308°
2026-04-27 01:28 42.69834 20.53253 38073 ft 423 kts 308°
2026-04-27 01:28 42.73604 20.47114 38077 ft 423 kts 308°
2026-04-27 01:29 42.77375 20.40960 38093 ft 423 kts 308°
2026-04-27 01:29 42.81128 20.34824 38093 ft 420 kts 308°
2026-04-27 01:30 42.84864 20.28700 38095 ft 420 kts 308°
2026-04-27 01:30 42.88600 20.22564 37906 ft 422 kts 308°
2026-04-27 01:30 42.90438 20.19543 37345 ft 413 kts 308°
2026-04-27 01:31 42.92259 20.16546 36855 ft 408 kts 308°
2026-04-27 01:31 42.94068 20.13564 36274 ft 407 kts 308°
2026-04-27 01:31 42.95872 20.10589 35648 ft 407 kts 307°
2026-04-27 01:31 42.97672 20.07615 35187 ft 403 kts 307°
2026-04-27 01:32 42.99454 20.04669 34744 ft 400 kts 307°
2026-04-27 01:32 43.01223 20.01743 34319 ft 397 kts 307°
2026-04-27 01:32 43.02972 19.98847 33846 ft 394 kts 307°
2026-04-27 01:32 43.04707 19.95969 33375 ft 390 kts 307°
2026-04-27 01:33 43.06424 19.93119 32957 ft 386 kts 307°
2026-04-27 01:33 43.08103 19.90331 32531 ft 383 kts 307°
2026-04-27 01:33 43.09787 19.87531 32118 ft 379 kts 307°
2026-04-27 01:33 43.11451 19.84760 31705 ft 376 kts 307°
2026-04-27 01:34 43.13107 19.82002 31301 ft 373 kts 307°
2026-04-27 01:34 43.14738 19.79281 30903 ft 369 kts 307°
2026-04-27 01:34 43.16366 19.76564 30510 ft 369 kts 307°
2026-04-27 01:34 43.18016 19.73803 30115 ft 380 kts 307°
2026-04-27 01:35 43.19709 19.70968 29625 ft 385 kts 307°
2026-04-27 01:35 43.21393 19.68150 29192 ft 379 kts 307°
2026-04-27 01:35 43.23052 19.65372 28765 ft 373 kts 307°
2026-04-27 01:35 43.24666 19.62669 28356 ft 368 kts 307°
2026-04-27 01:36 43.26278 19.59963 27944 ft 364 kts 307°
2026-04-27 01:36 43.27868 19.57293 27521 ft 359 kts 307°
2026-04-27 01:36 43.29438 19.54652 27128 ft 355 kts 307°
2026-04-27 01:36 43.30994 19.52034 26729 ft 352 kts 307°
2026-04-27 01:37 43.32534 19.49438 26334 ft 349 kts 307°
2026-04-27 01:37 43.34063 19.46861 25946 ft 346 kts 307°
2026-04-27 01:37 43.35575 19.44309 25566 ft 342 kts 307°
2026-04-27 01:37 43.37073 19.41777 25175 ft 340 kts 307°
2026-04-27 01:38 43.38537 19.39302 24802 ft 337 kts 307°
2026-04-27 01:38 43.40011 19.36807 24421 ft 335 kts 307°
2026-04-27 01:38 43.41474 19.34329 24058 ft 333 kts 307°
2026-04-27 01:38 43.42929 19.31863 23680 ft 331 kts 307°
2026-04-27 01:39 43.44374 19.29411 23239 ft 329 kts 307°
2026-04-27 01:39 43.45809 19.26973 22857 ft 326 kts 307°
2026-04-27 01:39 43.47232 19.24556 22492 ft 324 kts 307°
2026-04-27 01:39 43.48648 19.22146 22114 ft 324 kts 307°
2026-04-27 01:40 43.50086 19.19698 21730 ft 334 kts 307°
2026-04-27 01:40 43.51567 19.17172 21342 ft 341 kts 307°
2026-04-27 01:40 43.53054 19.14638 20944 ft 338 kts 307°
2026-04-27 01:40 43.54524 19.12132 20584 ft 333 kts 307°
2026-04-27 01:41 43.55974 19.09657 20192 ft 330 kts 307°
2026-04-27 01:41 43.57409 19.07204 19798 ft 328 kts 307°
2026-04-27 01:41 43.58837 19.04759 19427 ft 326 kts 307°
2026-04-27 01:41 43.60235 19.02365 19045 ft 324 kts 308°
2026-04-27 01:42 43.61642 18.99953 18669 ft 322 kts 308°
2026-04-27 01:42 43.63041 18.97553 18276 ft 320 kts 308°
2026-04-27 01:42 43.64430 18.95167 17849 ft 318 kts 308°
2026-04-27 01:42 43.65808 18.92798 17464 ft 315 kts 308°
2026-04-27 01:43 43.67175 18.90447 17088 ft 312 kts 308°
2026-04-27 01:43 43.68535 18.88105 16725 ft 310 kts 308°
2026-04-27 01:43 43.69878 18.85792 16354 ft 308 kts 308°
2026-04-27 01:43 43.71213 18.83490 16005 ft 305 kts 308°
2026-04-27 01:44 43.72547 18.81188 15659 ft 307 kts 308°
2026-04-27 01:44 43.73888 18.78871 15300 ft 310 kts 308°
2026-04-27 01:44 43.75208 18.76589 14962 ft 316 kts 308°
2026-04-27 01:44 43.76592 18.74195 14585 ft 320 kts 308°
2026-04-27 01:45 43.77976 18.71798 14210 ft 318 kts 309°
2026-04-27 01:45 43.79355 18.69410 13836 ft 315 kts 309°
2026-04-27 01:45 43.80715 18.67051 13429 ft 313 kts 309°
2026-04-27 01:45 43.82066 18.64706 13048 ft 310 kts 309°
2026-04-27 01:46 43.83407 18.62377 12670 ft 307 kts 309°
2026-04-27 01:46 43.84726 18.60084 12492 ft 299 kts 309°
2026-04-27 01:46 43.85997 18.57872 12361 ft 289 kts 309°
2026-04-27 01:46 43.86820 18.56440 12278 ft 283 kts 309°
2026-04-27 01:47 43.88428 18.53638 12122 ft 271 kts 309°
2026-04-27 01:47 43.89584 18.51626 12011 ft 263 kts 309°
2026-04-27 01:47 43.90330 18.50324 11955 ft 257 kts 309°
2026-04-27 01:47 43.91427 18.48408 11844 ft 250 kts 309°
2026-04-27 01:48 43.92827 18.45963 11713 ft 239 kts 309°
2026-04-27 01:48 43.93523 18.44752 11600 ft 237 kts 311°
2026-04-27 01:48 43.94964 18.42462 11256 ft 238 kts 313°
2026-04-27 01:48 43.95711 18.41306 11085 ft 238 kts 313°
2026-04-27 01:49 43.96816 18.39597 10827 ft 235 kts 313°
2026-04-27 01:49 43.97892 18.37925 10569 ft 229 kts 313°
2026-04-27 01:49 43.98947 18.36284 10174 ft 231 kts 314°
2026-04-27 01:49 44.00007 18.34631 9853 ft 227 kts 314°
2026-04-27 01:50 44.01040 18.33012 9597 ft 221 kts 314°
2026-04-27 01:50 44.02045 18.31438 9351 ft 214 kts 314°
2026-04-27 01:50 44.03018 18.29913 9131 ft 208 kts 314°
2026-04-27 01:50 44.03977 18.28409 8945 ft 210 kts 314°
2026-04-27 01:51 44.04963 18.26864 8733 ft 216 kts 314°
2026-04-27 01:51 44.05939 18.25218 8498 ft 229 kts 302°
2026-04-27 01:51 44.06286 18.22989 8261 ft 249 kts 265°
2026-04-27 01:51 44.05768 18.20689 8033 ft 248 kts 251°
2026-04-27 01:52 44.05149 18.18512 7763 ft 241 kts 252°
2026-04-27 01:52 44.04551 18.16363 7504 ft 235 kts 252°
2026-04-27 01:52 44.03977 18.14266 7276 ft 233 kts 253°
2026-04-27 01:52 44.03399 18.12128 7062 ft 237 kts 253°
2026-04-27 01:53 44.02819 18.09983 6811 ft 237 kts 253°
2026-04-27 01:53 44.02191 18.07893 6558 ft 234 kts 241°
2026-04-27 01:53 44.00962 18.06437 6295 ft 235 kts 203°
2026-04-27 01:53 43.99412 18.06004 6118 ft 220 kts 186°
2026-04-27 01:54 43.97940 18.05878 5991 ft 205 kts 184°
2026-04-27 01:54 43.96549 18.05777 5882 ft 200 kts 184°
2026-04-27 01:54 43.95147 18.05667 5695 ft 201 kts 184°
2026-04-27 01:54 43.93758 18.05602 5476 ft 199 kts 174°
2026-04-27 01:55 43.92564 18.06375 5322 ft 184 kts 133°
2026-04-27 01:55 43.91873 18.07805 5175 ft 176 kts 116°
2026-04-27 01:55 43.91320 18.09298 4996 ft 177 kts 115°
2026-04-27 01:55 43.90765 18.10820 4792 ft 176 kts 115°
2026-04-27 01:56 43.89667 18.13804 4427 ft 172 kts 116°
2026-04-27 01:56 43.89125 18.15273 4257 ft 169 kts 116°
2026-04-27 01:56 43.88606 18.16677 4049 ft 161 kts 116°
2026-04-27 01:57 43.88099 18.18038 3837 ft 157 kts 116°
2026-04-27 01:57 43.87598 18.19384 3639 ft 158 kts 116°
2026-04-27 01:57 43.87094 18.20740 3434 ft 158 kts 116°
2026-04-27 01:57 43.86591 18.22090 3215 ft 157 kts 117°
2026-04-27 01:58 43.86091 18.23431 2985 ft 156 kts 117°
2026-04-27 01:58 43.85595 18.24758 2758 ft 155 kts 117°
2026-04-27 01:58 43.85105 18.26064 2538 ft 153 kts 118°
2026-04-27 01:58 43.84610 18.27368 2352 ft 153 kts 117°
2026-04-27 01:59 43.84123 18.28674 2158 ft 153 kts 117°
2026-04-27 01:59 43.83639 18.29980 1967 ft 152 kts 117°
2026-04-27 01:59 43.83159 18.31276 1789 ft 151 kts 117°
2026-04-27 01:59 43.82679 18.32560 1683 ft 148 kts 117°
2026-04-27 02:00 43.82240 18.33734 1701 ft 94 kts 117°
2026-04-27 02:00 43.82072 18.34181 1707 ft 43 kts 117°
2026-04-27 02:00 43.81990 18.34400 1711 ft 22 kts 118°
2026-04-27 02:00 43.81948 18.34557 1714 ft 8 kts 76°
2026-04-27 02:01 43.81989 18.34604 1715 ft 9 kts 17°
2026-04-27 02:01 43.82055 18.34616 1713 ft 11 kts 343°
2026-04-27 02:01 43.82120 18.34532 1710 ft 15 kts 305°
2026-04-27 02:01 43.82173 18.34389 1707 ft 19 kts 297°
2026-04-27 02:02 43.82239 18.34211 1702 ft 22 kts 297°
2026-04-27 02:02 43.82315 18.34006 1697 ft 26 kts 297°
2026-04-27 02:02 43.82371 18.33858 1688 ft 12 kts 298°
2026-04-27 02:02 43.82414 18.33741 1692 ft 15 kts 297°
2026-04-27 02:03 43.82461 18.33651 1684 ft 8 kts 354°
2026-04-27 02:03 43.82511 18.33686 1687 ft 4 kts 27°
2026-04-27 02:03 43.82513 18.33687 1686 ft 0 kts 27°